| time (UTC) | temp C | wind direction | speed KPH | gust KPH | rain 1hr cm | rain 24hr cm | rain mn cm | humidity % | barometer mb |
| 20260507000949 | 8 | 285 | 0.0 | 3.2 | 0.03 | 2.44 | 0.00 | 100 | 1014.9 |
| 20260507000450 | 8 | 193 | 1.6 | 8.0 | 0.03 | 2.44 | 0.00 | 100 | 1015.0 |
| 20260506235946 | 8 | 170 | 3.2 | 8.0 | 0.03 | 2.44 | 0.00 | 100 | 1014.9 |
| 20260506235445 | 8 | 167 | 3.2 | 11.3 | 0.03 | 2.44 | 0.00 | 100 | 1014.9 |
| 20260506234944 | 8 | 161 | 4.8 | 11.3 | 0.03 | 2.44 | 0.00 | 100 | 1014.9 |
| 20260506234444 | 8 | 160 | 3.2 | 6.4 | 0.03 | 2.44 | 0.00 | 100 | 1014.9 |
| 20260506233943 | 8 | 204 | 1.6 | 9.7 | 0.03 | 2.44 | 0.00 | 100 | 1014.9 |
| 20260506233442 | 8 | 160 | 4.8 | 9.7 | 0.03 | 2.44 | 0.00 | 100 | 1014.9 |
| 20260506232940 | 8 | 168 | 1.6 | 6.4 | 0.03 | 2.44 | 0.00 | 100 | 1014.9 |
| 20260506232439 | 8 | 192 | 3.2 | 6.4 | 0.03 | 2.44 | 0.00 | 100 | 1014.9 |
| 20260506231938 | 8 | 165 | 3.2 | 8.0 | 0.00 | 2.41 | 0.00 | 100 | 1014.8 |
| 20260506231436 | 8 | 157 | 4.8 | 8.0 | 0.13 | 2.39 | 0.00 | 100 | 1014.8 |
| 20260506230935 | 8 | 225 | 1.6 | 4.8 | 0.13 | 2.36 | 0.00 | 100 | 1014.7 |
| 20260506225933 | 8 | 179 | 3.2 | 6.4 | 0.13 | 2.36 | 0.00 | 100 | 1014.8 |
| 20260506225431 | 8 | 203 | 1.6 | 8.0 | 0.13 | 2.36 | 0.00 | 100 | 1014.6 |
| 20260506224930 | 8 | 179 | 1.6 | 8.0 | 0.10 | 2.34 | 0.00 | 100 | 1014.7 |
| 20260506223927 | 8 | 189 | 3.2 | 8.0 | 0.05 | 2.31 | 0.00 | 100 | 1014.7 |
| 20260506223426 | 8 | 167 | 3.2 | 8.0 | 0.05 | 2.31 | 0.00 | 100 | 1014.6 |
| 20260506222924 | 8 | 166 | 3.2 | 12.9 | 0.03 | 2.29 | 0.00 | 100 | 1014.7 |
| 20260506222423 | 8 | 185 | 4.8 | 12.9 | 0.03 | 2.29 | 0.00 | 100 | 1014.6 |
| 20260506221922 | 8 | 196 | 3.2 | 9.7 | 0.00 | 2.26 | 0.00 | 100 | 1014.6 |
| 20260506221421 | 8 | 164 | 3.2 | 8.0 | 0.00 | 2.26 | 0.00 | 100 | 1014.5 |
| 20260506220417 | 8 | 174 | 4.8 | 9.7 | 0.00 | 2.26 | 0.00 | 100 | 1014.3 |
| 20260506215916 | 8 | 165 | 4.8 | 11.3 | 0.00 | 2.26 | 0.00 | 100 | 1014.3 |
| 20260506214911 | 8 | 177 | 4.8 | 11.3 | 0.00 | 2.26 | 0.00 | 100 | 1014.3 |
| 20260506213407 | 8 | 212 | 3.2 | 9.7 | 0.00 | 2.26 | 0.00 | 100 | 1014.2 |
| 20260506212906 | 8 | 172 | 4.8 | 9.7 | 0.00 | 2.26 | 0.00 | 100 | 1014.2 |
| 20260506212405 | 8 | 190 | 1.6 | 6.4 | 0.00 | 2.26 | 0.00 | 100 | 1014.2 |
| 20260506211904 | 8 | 213 | 1.6 | 9.7 | 0.00 | 2.26 | 0.00 | 100 | 1014.2 |
| 20260506210900 | 8 | 173 | 4.8 | 9.7 | 0.00 | 2.26 | 0.00 | 100 | 1014.2 |
| 20260506210400 | 8 | 167 | 4.8 | 11.3 | 0.00 | 2.26 | 0.00 | 100 | 1014.2 |
| 20260506205356 | 8 | 171 | 4.8 | 9.7 | 0.00 | 2.26 | 0.00 | 100 | 1014.1 |
| 20260506204353 | 8 | 171 | 4.8 | 8.0 | 0.00 | 2.26 | 0.00 | 100 | 1014.2 |
| 20260506203852 | 8 | 212 | 1.6 | 4.8 | 0.00 | 2.26 | 0.00 | 100 | 1014.0 |
| 20260506203351 | 8 | 195 | 1.6 | 3.2 | 0.00 | 2.26 | 0.00 | 100 | 1014.1 |
| 20260506202849 | 8 | 234 | 1.6 | 9.7 | 0.00 | 2.26 | 0.00 | 100 | 1014.1 |
| 20260506201846 | 7 | 175 | 4.8 | 9.7 | 0.00 | 2.26 | 0.00 | 100 | 1013.9 |
| 20260506201345 | 7 | 213 | 1.6 | 6.4 | 0.05 | 2.26 | 0.00 | 100 | 1014.0 |
| 20260506200844 | 7 | 235 | 1.6 | 6.4 | 0.05 | 2.26 | 0.00 | 100 | 1013.8 |
| 20260506200343 | 7 | 168 | 3.2 | 6.4 | 0.05 | 2.26 | 0.00 | 100 | 1013.9 |
| 20260506195340 | 7 | 164 | 1.6 | 3.2 | 0.05 | 2.26 | 0.00 | 100 | 1013.7 |
| 20260506194838 | 7 | 251 | 0.0 | 4.8 | 0.05 | 2.26 | 0.00 | 100 | 1013.7 |
| 20260506193835 | 8 | 275 | 0.0 | 4.8 | 0.03 | 2.24 | 0.00 | 100 | 1013.6 |
| 20260506193334 | 8 | 252 | 1.6 | 6.4 | 0.03 | 2.24 | 0.00 | 100 | 1013.6 |
| 20260506192833 | 8 | 206 | 1.6 | 6.4 | 0.03 | 2.24 | 0.00 | 100 | 1013.5 |
| 20260506191831 | 8 | 173 | 3.2 | 6.4 | 0.00 | 2.21 | 0.00 | 100 | 1013.4 |
| 20260506191330 | 8 | 170 | 3.2 | 6.4 | 0.05 | 2.21 | 0.00 | 100 | 1013.5 |
| 20260506190828 | 8 | 171 | 3.2 | 6.4 | 0.05 | 2.21 | 0.00 | 100 | 1013.3 |
| 20260506190327 | 8 | 170 | 3.2 | 9.7 | 0.05 | 2.21 | 0.00 | 100 | 1013.3 |
| 20260506185826 | 8 | 167 | 3.2 | 9.7 | 0.03 | 2.18 | 0.00 | 100 | 1013.3 |
| 20260506185325 | 8 | 169 | 3.2 | 11.3 | 0.03 | 2.18 | 0.00 | 100 | 1013.3 |
| 20260506184824 | 8 | 174 | 3.2 | 11.3 | 0.03 | 2.18 | 0.00 | 100 | 1013.2 |
| 20260506184323 | 8 | 171 | 4.8 | 11.3 | 0.03 | 2.18 | 0.00 | 100 | 1013.2 |
| 20260506183821 | 8 | 163 | 6.4 | 11.3 | 0.00 | 2.16 | 0.00 | 100 | 1013.1 |
| 20260506183320 | 8 | 171 | 6.4 | 11.3 | 0.00 | 2.16 | 0.00 | 100 | 1013.1 |
| 20260506182819 | 8 | 167 | 4.8 | 11.3 | 0.00 | 2.16 | 0.00 | 100 | 1013.1 |
| 20260506182316 | 8 | 165 | 4.8 | 12.9 | 0.00 | 2.16 | 0.00 | 100 | 1013.2 |
| 20260506181815 | 8 | 170 | 4.8 | 12.9 | 0.00 | 2.16 | 0.00 | 100 | 1013.0 |
| 20260506181314 | 8 | 168 | 6.4 | 11.3 | 0.08 | 2.16 | 0.00 | 100 | 1013.0 |
| 20260506180813 | 8 | 164 | 4.8 | 11.3 | 0.08 | 2.16 | 0.00 | 100 | 1012.9 |
| 20260506180312 | 8 | 161 | 6.4 | 9.7 | 0.05 | 2.13 | 0.00 | 100 | 1012.8 |
| 20260506175811 | 8 | 159 | 4.8 | 9.7 | 0.05 | 2.13 | 0.00 | 100 | 1012.8 |
| 20260506175310 | 8 | 167 | 4.8 | 12.9 | 0.03 | 2.11 | 0.00 | 100 | 1012.8 |
| 20260506174809 | 8 | 157 | 4.8 | 12.9 | 0.03 | 2.11 | 0.00 | 100 | 1012.7 |
| 20260506174308 | 8 | 154 | 6.4 | 12.9 | 0.03 | 2.11 | 0.00 | 100 | 1012.7 |
| 20260506173807 | 8 | 196 | 3.2 | 12.9 | 0.00 | 2.08 | 0.00 | 100 | 1012.7 |
| 20260506173306 | 8 | 162 | 4.8 | 12.9 | 0.00 | 2.08 | 0.00 | 100 | 1012.7 |
| 20260506172804 | 8 | 163 | 6.4 | 12.9 | 0.00 | 2.08 | 0.00 | 100 | 1012.7 |
| 20260506172306 | 8 | 159 | 4.8 | 9.7 | 0.00 | 2.08 | 0.00 | 100 | 1012.6 |
| 20260506171801 | 8 | 164 | 4.8 | 16.1 | 0.00 | 2.08 | 0.00 | 100 | 1012.5 |
| 20260506171300 | 8 | 162 | 6.4 | 16.1 | 0.15 | 2.08 | 0.00 | 100 | 1012.5 |
| 20260506170758 | 8 | 150 | 4.8 | 12.9 | 0.15 | 2.08 | 0.00 | 100 | 1012.4 |
| 20260506170257 | 8 | 158 | 6.4 | 14.5 | 0.15 | 2.08 | 0.00 | 100 | 1012.3 |
| 20260506165755 | 8 | 176 | 4.8 | 14.5 | 0.13 | 2.06 | 0.00 | 100 | 1012.4 |
| 20260506165254 | 8 | 173 | 6.4 | 12.9 | 0.13 | 2.06 | 0.00 | 100 | 1012.4 |
| 20260506164752 | 8 | 175 | 4.8 | 14.5 | 0.13 | 2.06 | 0.00 | 100 | 1012.4 |
| 20260506164251 | 8 | 165 | 8.0 | 16.1 | 0.13 | 2.06 | 0.00 | 100 | 1012.5 |
| 20260506163750 | 8 | 242 | 1.6 | 17.7 | 0.10 | 2.03 | 0.00 | 100 | 1012.5 |
| 20260506163248 | 8 | 222 | 3.2 | 17.7 | 0.10 | 2.03 | 0.00 | 100 | 1012.5 |
| 20260506162747 | 8 | 161 | 4.8 | 12.9 | 0.05 | 1.98 | 0.00 | 100 | 1012.5 |
| 20260506162246 | 9 | 171 | 3.2 | 16.1 | 0.00 | 1.93 | 0.00 | 100 | 1012.4 |
| 20260506161745 | 10 | 176 | 6.4 | 17.7 | 0.00 | 1.93 | 0.00 | 100 | 1012.3 |
| 20260506161241 | 10 | 270 | 6.4 | 17.7 | 0.08 | 1.91 | 0.00 | 100 | 1012.2 |
| 20260506160740 | 10 | 174 | 6.4 | 14.5 | 0.05 | 1.88 | 0.00 | 100 | 1011.8 |
| 20260506155737 | 10 | 192 | 6.4 | 17.7 | 0.05 | 1.88 | 0.00 | 100 | 1011.8 |
| 20260506155236 | 10 | 172 | 6.4 | 20.9 | 0.05 | 1.88 | 0.00 | 100 | 1011.7 |
| 20260506154735 | 10 | 168 | 8.0 | 20.9 | 0.05 | 1.88 | 0.00 | 100 | 1011.7 |
| 20260506154234 | 10 | 176 | 4.8 | 12.9 | 0.05 | 1.88 | 0.00 | 100 | 1011.7 |
| 20260506153733 | 10 | 157 | 4.8 | 12.9 | 0.03 | 1.85 | 0.00 | 100 | 1011.7 |
| 20260506153231 | 10 | 166 | 4.8 | 12.9 | 0.03 | 1.85 | 0.00 | 100 | 1011.6 |
| 20260506152730 | 10 | 169 | 4.8 | 9.7 | 0.03 | 1.85 | 0.00 | 100 | 1011.6 |
| 20260506152229 | 10 | 175 | 4.8 | 9.7 | 0.00 | 1.83 | 0.00 | 100 | 1011.6 |
| 20260506151727 | 10 | 167 | 3.2 | 9.7 | 0.00 | 1.83 | 0.00 | 100 | 1011.5 |
| 20260506151226 | 10 | 161 | 3.2 | 8.0 | 0.05 | 1.83 | 0.00 | 100 | 1011.5 |
| 20260506150725 | 10 | 171 | 3.2 | 8.0 | 0.05 | 1.83 | 0.00 | 100 | 1011.5 |
| 20260506150224 | 10 | 166 | 4.8 | 8.0 | 0.03 | 1.83 | 0.00 | 100 | 1011.5 |
| 20260506145723 | 10 | 163 | 3.2 | 9.7 | 0.03 | 1.83 | 0.00 | 100 | 1011.5 |
| 20260506145221 | 10 | 162 | 3.2 | 9.7 | 0.03 | 1.83 | 0.00 | 100 | 1011.5 |
| 20260506144720 | 10 | 170 | 4.8 | 9.7 | 0.00 | 1.80 | 0.00 | 100 | 1011.6 |
| 20260506144219 | 11 | 173 | 3.2 | 9.7 | 0.00 | 1.80 | 0.00 | 100 | 1011.6 |
| 20260506143718 | 11 | 158 | 3.2 | 6.4 | 0.00 | 1.80 | 0.00 | 100 | 1011.6 |
| 20260506142214 | 10 | 181 | 3.2 | 12.9 | 0.00 | 1.80 | 0.00 | 100 | 1011.7 |
| 20260506141714 | 10 | 155 | 6.4 | 16.1 | 0.00 | 1.80 | 0.00 | 100 | 1011.7 |
| 20260506141212 | 10 | 169 | 6.4 | 19.3 | 0.03 | 1.80 | 0.00 | 100 | 1011.7 |
| 20260506140712 | 11 | 186 | 4.8 | 19.3 | 0.03 | 1.80 | 0.00 | 100 | 1011.7 |
| 20260506135710 | 11 | 194 | 6.4 | 14.5 | 0.00 | 1.78 | 0.00 | 100 | 1011.6 |
| 20260506134707 | 11 | 177 | 4.8 | 16.1 | 0.00 | 1.78 | 0.00 | 100 | 1011.7 |
| 20260506134205 | 11 | 166 | 4.8 | 19.3 | 0.00 | 1.78 | 0.00 | 100 | 1011.7 |
| 20260506133202 | 11 | 172 | 8.0 | 17.7 | 0.00 | 1.78 | 0.00 | 100 | 1011.6 |
| 20260506132701 | 11 | 170 | 4.8 | 19.3 | 0.00 | 1.78 | 0.00 | 100 | 1011.6 |
| 20260506132200 | 11 | 169 | 9.7 | 20.9 | 0.00 | 1.78 | 0.00 | 100 | 1011.6 |
| 20260506131658 | 11 | 171 | 8.0 | 20.9 | 0.00 | 1.78 | 0.00 | 100 | 1011.6 |
| 20260506131155 | 11 | 167 | 8.0 | 24.1 | 0.03 | 1.78 | 0.00 | 100 | 1011.6 |
| 20260506130655 | 11 | 159 | 8.0 | 24.1 | 0.03 | 1.78 | 0.00 | 100 | 1011.6 |
| 20260506130154 | 11 | 183 | 8.0 | 19.3 | 0.03 | 1.78 | 0.00 | 100 | 1011.6 |
| 20260506125653 | 11 | 194 | 4.8 | 19.3 | 0.03 | 1.78 | 0.00 | 100 | 1011.6 |
| 20260506125152 | 11 | 173 | 8.0 | 19.3 | 0.03 | 1.78 | 0.00 | 100 | 1011.5 |
| 20260506124650 | 11 | 165 | 8.0 | 19.3 | 0.03 | 1.78 | 0.00 | 100 | 1011.5 |
| 20260506124148 | 11 | 166 | 8.0 | 24.1 | 0.03 | 1.78 | 0.00 | 100 | 1011.5 |
| 20260506123646 | 10 | 168 | 9.7 | 22.5 | 0.03 | 1.78 | 0.00 | 100 | 1011.6 |
| 20260506123145 | 10 | 167 | 9.7 | 19.3 | 0.03 | 1.78 | 0.00 | 100 | 1011.5 |
| 20260506122644 | 10 | 176 | 8.0 | 22.5 | 0.03 | 1.78 | 0.00 | 100 | 1011.6 |
| 20260506122144 | 10 | 169 | 8.0 | 17.7 | 0.00 | 1.75 | 0.00 | 100 | 1011.6 |
| 20260506121642 | 10 | 172 | 6.4 | 17.7 | 0.00 | 1.75 | 0.00 | 100 | 1011.5 |
| 20260506121141 | 10 | 171 | 8.0 | 19.3 | 0.20 | 1.73 | 0.00 | 100 | 1011.5 |
| 20260506120640 | 10 | 166 | 6.4 | 19.3 | 0.18 | 1.70 | 0.00 | 100 | 1011.6 |
| 20260506115638 | 10 | 165 | 9.7 | 17.7 | 0.13 | 1.65 | 0.00 | 100 | 1011.5 |
| 20260506115136 | 10 | 198 | 6.4 | 12.9 | 0.13 | 1.65 | 0.00 | 100 | 1011.5 |
| 20260506114635 | 10 | 216 | 3.2 | 14.5 | 0.10 | 1.60 | 0.00 | 100 | 1011.5 |
| 20260506114134 | 10 | 172 | 4.8 | 16.1 | 0.08 | 1.57 | 0.00 | 100 | 1011.5 |
| 20260506113632 | 10 | 166 | 4.8 | 17.7 | 0.05 | 1.57 | 0.00 | 100 | 1011.4 |
| 20260506113130 | 10 | 170 | 4.8 | 19.3 | 0.03 | 1.55 | 0.00 | 100 | 1011.3 |
| 20260506112126 | 10 | 174 | 6.4 | 19.3 | 0.00 | 1.52 | 0.00 | 100 | 1011.4 |
| 20260506111625 | 10 | 163 | 8.0 | 19.3 | 0.00 | 1.52 | 0.00 | 100 | 1011.3 |
| 20260506111123 | 10 | 164 | 6.4 | 19.3 | 0.23 | 1.47 | 0.00 | 100 | 1011.5 |
| 20260506110621 | 10 | 174 | 6.4 | 14.5 | 0.23 | 1.47 | 0.00 | 100 | 1011.4 |
| 20260506110119 | 10 | 190 | 6.4 | 12.9 | 0.20 | 1.45 | 0.00 | 100 | 1011.4 |
| 20260506105117 | 10 | 178 | 3.2 | 11.3 | 0.18 | 1.42 | 0.00 | 100 | 1011.4 |
| 20260506104616 | 10 | 234 | 1.6 | 4.8 | 0.18 | 1.42 | 0.00 | 100 | 1011.3 |
| 20260506104115 | 10 | 304 | 0.0 | 9.7 | 0.15 | 1.40 | 0.00 | 100 | 1011.4 |
| 20260506103614 | 10 | 127 | 3.2 | 9.7 | 0.13 | 1.37 | 0.00 | 100 | 1011.4 |
| 20260506103113 | 10 | 219 | 1.6 | 4.8 | 0.13 | 1.35 | 0.00 | 100 | 1011.4 |
| 20260506102612 | 9 | 178 | 1.6 | 4.8 | 0.10 | 1.35 | 0.00 | 100 | 1011.4 |
| 20260506102111 | 9 | 234 | 1.6 | 9.7 | 0.03 | 1.27 | 0.00 | 100 | 1011.3 |
| 20260506101610 | 9 | 347 | 1.6 | 9.7 | 0.00 | 1.24 | 0.00 | 100 | 1011.2 |
| 20260506101109 | 9 | 257 | 1.6 | 9.7 | 0.56 | 1.14 | 0.00 | 100 | 1011.2 |
| 20260506100606 | 9 | 183 | 1.6 | 11.3 | 0.53 | 1.12 | 0.00 | 100 | 1011.0 |
| 20260506095601 | 9 | 172 | 4.8 | 11.3 | 0.43 | 1.04 | 0.00 | 100 | 1010.9 |
| 20260506095100 | 9 | 164 | 4.8 | 9.7 | 0.36 | 0.97 | 0.00 | 100 | 1010.7 |
| 20260506094559 | 9 | 216 | 1.6 | 12.9 | 0.28 | 0.86 | 0.00 | 100 | 1010.7 |
| 20260506094057 | 9 | 245 | 3.2 | 14.5 | 0.20 | 0.81 | 0.00 | 100 | 1010.7 |
| 20260506093556 | 9 | 167 | 6.4 | 14.5 | 0.13 | 0.74 | 0.00 | 100 | 1010.5 |
| 20260506092053 | 10 | 160 | 6.4 | 16.1 | 0.03 | 0.61 | 0.00 | 100 | 1010.4 |
| 20260506091549 | 10 | 218 | 3.2 | 16.1 | 0.00 | 0.61 | 0.00 | 100 | 1010.4 |
| 20260506091045 | 10 | 166 | 6.4 | 16.1 | 0.28 | 0.56 | 0.00 | 100 | 1010.3 |
| 20260506090539 | 10 | 199 | 6.4 | 19.3 | 0.28 | 0.56 | 0.00 | 100 | 1010.2 |
| 20260506090035 | 10 | 170 | 8.0 | 17.7 | 0.25 | 0.53 | 0.00 | 100 | 1010.1 |
| 20260506085531 | 10 | 197 | 4.8 | 16.1 | 0.23 | 0.51 | 0.00 | 100 | 1010.1 |
| 20260506085031 | 10 | 183 | 4.8 | 16.1 | 0.18 | 0.46 | 0.00 | 100 | 1010.0 |
| 20260506084529 | 10 | 205 | 4.8 | 19.3 | 0.18 | 0.46 | 0.00 | 100 | 1009.9 |
| 20260506084020 | 10 | 189 | 8.0 | 20.9 | 0.13 | 0.41 | 0.00 | 100 | 1009.9 |
| 20260506083017 | 10 | 185 | 4.8 | 17.7 | 0.10 | 0.36 | 0.00 | 100 | 1009.8 |
| 20260506082516 | 10 | 172 | 6.4 | 14.5 | 0.08 | 0.36 | 0.00 | 100 | 1009.7 |
| 20260506082016 | 10 | 158 | 4.8 | 16.1 | 0.03 | 0.30 | 0.00 | 100 | 1009.7 |
| 20260506081515 | 10 | 211 | 4.8 | 17.7 | 0.00 | 0.28 | 0.00 | 100 | 1009.6 |
| 20260506081013 | 10 | 172 | 8.0 | 17.7 | 0.20 | 0.23 | 0.00 | 100 | 1009.6 |
| 20260506080513 | 10 | 169 | 4.8 | 14.5 | 0.15 | 0.18 | 0.00 | 100 | 1009.5 |
| 20260506072503 | 11 | 278 | 0.0 | 3.2 | 0.03 | 0.05 | 0.00 | 100 | 1009.2 |
| 20260506072003 | 11 | 259 | 1.6 | 4.8 | 0.00 | 0.03 | 0.00 | 100 | 1009.0 |
| 20260506071502 | 11 | 316 | 0.0 | 4.8 | 0.00 | 0.03 | 0.00 | 100 | 1008.9 |
| 20260506061947 | 11 | 210 | 0.0 | 6.4 | 0.00 | 0.00 | 0.00 | 100 | 1009.1 |
| 20260506061446 | 10 | 170 | 3.2 | 6.4 | 0.00 | 0.00 | 0.00 | 100 | 1009.1 |
| 20260506060444 | 10 | 131 | 0.0 | 8.0 | 0.00 | 0.00 | 0.00 | 100 | 1009.1 |
| 20260506050415 | 9 | 216 | 1.6 | 4.8 | 0.00 | 0.43 | 0.00 | 100 | 1009.2 |
| 20260506044912 | 9 | 243 | 0.0 | 8.0 | 0.00 | 0.43 | 0.00 | 100 | 1009.2 |
| 20260506043909 | 9 | 244 | 0.0 | 4.8 | 0.00 | 0.43 | 0.00 | 100 | 1009.1 |
| 20260506043407 | 9 | 210 | 1.6 | 6.4 | 0.00 | 0.43 | 0.00 | 100 | 1009.1 |
| 20260506042906 | 8 | 196 | 1.6 | 6.4 | 0.00 | 0.43 | 0.00 | 100 | 1009.1 |
| 20260506042404 | 8 | 169 | 1.6 | 4.8 | 0.00 | 0.43 | 0.00 | 100 | 1009.1 |
| 20260506041902 | 8 | 184 | 1.6 | 3.2 | 0.00 | 0.43 | 0.00 | 100 | 1009.2 |
| 20260506041401 | 8 | 179 | 1.6 | 6.4 | 0.00 | 0.43 | 0.00 | 100 | 1009.2 |
| 20260506040859 | 8 | 176 | 3.2 | 6.4 | 0.00 | 0.43 | 0.00 | 100 | 1009.1 |
| 20260506040358 | 8 | 183 | 1.6 | 4.8 | 0.00 | 0.43 | 0.00 | 100 | 1009.2 |
| 20260506035856 | 8 | 169 | 3.2 | 4.8 | 0.00 | 0.43 | 0.00 | 100 | 1009.1 |
| 20260506035355 | 8 | 164 | 1.6 | 4.8 | 0.00 | 0.43 | 0.00 | 100 | 1009.0 |
| 20260506034853 | 8 | 176 | 0.0 | 4.8 | 0.00 | 0.43 | 0.00 | 100 | 1009.0 |
| 20260506034352 | 8 | 170 | 1.6 | 4.8 | 0.00 | 0.43 | 0.00 | 100 | 1009.1 |
| 20260506033851 | 8 | 158 | 1.6 | 3.2 | 0.00 | 0.43 | 0.00 | 100 | 1009.1 |
| 20260506033350 | 8 | 175 | 1.6 | 4.8 | 0.00 | 0.43 | 0.00 | 100 | 1009.2 |
| 20260506032848 | 9 | 199 | 0.0 | 4.8 | 0.00 | 0.43 | 0.00 | 100 | 1009.1 |
| 20260506032347 | 9 | 171 | 3.2 | 4.8 | 0.00 | 0.43 | 0.00 | 100 | 1009.2 |
| 20260506030843 | 9 | 167 | 3.2 | 4.8 | 0.00 | 0.43 | 0.00 | 100 | 1009.3 |
| 20260506030341 | 9 | 175 | 1.6 | 6.4 | 0.00 | 0.43 | 0.00 | 100 | 1009.5 |
| 20260506025840 | 9 | 174 | 3.2 | 9.7 | 0.00 | 0.43 | 0.00 | 100 | 1009.6 |
| 20260506025338 | 9 | 167 | 4.8 | 9.7 | 0.00 | 0.43 | 0.00 | 100 | 1009.7 |
| 20260506024836 | 9 | 174 | 4.8 | 6.4 | 0.00 | 0.43 | 0.00 | 100 | 1009.6 |
| 20260506023331 | 8 | 161 | 1.6 | 4.8 | 0.00 | 0.43 | 0.00 | 100 | 1009.7 |
| 20260506022831 | 9 | 161 | 1.6 | 4.8 | 0.00 | 0.43 | 0.00 | 100 | 1009.8 |
| 20260506022330 | 9 | 163 | 0.0 | 4.8 | 0.00 | 0.43 | 0.00 | 100 | 1009.8 |
| 20260506021828 | 9 | 262 | 1.6 | 4.8 | 0.00 | 0.43 | 0.00 | 100 | 1009.8 |
| 20260506021328 | 9 | 178 | 3.2 | 4.8 | 0.00 | 0.43 | 0.00 | 100 | 1009.9 |
| 20260506020826 | 9 | 164 | 1.6 | 3.2 | 0.00 | 0.43 | 0.00 | 100 | 1009.9 |
| 20260506020326 | 9 | 173 | 0.0 | 1.6 | 0.00 | 0.43 | 0.00 | 100 | 1009.9 |
| 20260506015823 | 9 | 277 | 0.0 | 1.6 | 0.00 | 0.43 | 0.00 | 100 | 1010.0 |
| 20260506014819 | 9 | 165 | 1.6 | 3.2 | 0.00 | 0.43 | 0.00 | 100 | 1010.1 |
| 20260506014317 | 9 | 224 | 0.0 | 3.2 | 0.00 | 0.43 | 0.00 | 100 | 1010.2 |
| 20260506013817 | 9 | 250 | 0.0 | 4.8 | 0.00 | 0.43 | 0.00 | 100 | 1010.2 |
| 20260506013316 | 9 | 174 | 1.6 | 6.4 | 0.00 | 0.43 | 0.00 | 100 | 1010.2 |
| 20260506012815 | 9 | 200 | 0.0 | 6.4 | 0.00 | 0.43 | 0.00 | 100 | 1010.3 |
| 20260506012313 | 9 | 170 | 1.6 | 4.8 | 0.00 | 0.43 | 0.00 | 100 | 1010.3 |
| 20260506011812 | 9 | 189 | 0.0 | 3.2 | 0.00 | 0.43 | 0.00 | 100 | 1010.3 |
| 20260506011312 | 9 | 254 | 0.0 | 3.2 | 0.00 | 0.43 | 0.00 | 100 | 1010.4 |
| 20260506010811 | 9 | 240 | 0.0 | 6.4 | 0.00 | 0.43 | 0.00 | 100 | 1010.6 |
| 20260506010309 | 9 | 206 | 1.6 | 6.4 | 0.00 | 0.43 | 0.00 | 100 | 1010.6 |
| 20260506005806 | 9 | 163 | 3.2 | 8.0 | 0.00 | 0.43 | 0.00 | 100 | 1010.6 |
| 20260506004802 | 10 | 175 | 4.8 | 14.5 | 0.00 | 0.43 | 0.00 | 100 | 1010.8 |
| 20260506004302 | 10 | 175 | 4.8 | 12.9 | 0.00 | 0.43 | 0.00 | 100 | 1010.8 |
| 20260506003800 | 10 | 211 | 4.8 | 12.9 | 0.00 | 0.43 | 0.00 | 100 | 1010.9 |
| 20260506002757 | 10 | 165 | 6.4 | 14.5 | 0.00 | 0.43 | 0.00 | 100 | 1010.9 |
| 20260506002257 | 10 | 167 | 4.8 | 12.9 | 0.00 | 0.43 | 0.00 | 100 | 1010.9 |
| 20260506001756 | 10 | 163 | 6.4 | 16.1 | 0.00 | 0.43 | 0.00 | 100 | 1010.9 |